[[{"header":{"parameterUnit":"m.s-1","parameterCategory":1,"la1":30.2991,"la2":30.254,"lo1":-89.0895,"lo2":-89.0444,"dy":0.0017,"dx":0.0017,"nx":28,"ny":28,"refTime":"2024-09-01T03:00:00:Z","depth":0,"parameterNumber":2,"parameterNumberName":"U-component_of_WINDS"},"data":[0,0,0,0,0,0,0,0,0,0,0,0,0,0,0,0,0,0,0,0,0,0,0,0,0,0,0,0,0,0,0,0,0,0,0,0,0,0,0,0,0,0,0,0,0,0,0,0,0,0,0,0,0,0,0,0,0,0,0.3278,0.3277,0,0.3201,0.32,0.32,0.3135,0.3134,0.3133,0.3133,0.3055,0.3053,0.3052,0,0,0,0,0,0,0,0,0,0,0,0,0,0.3366,0.3365,0.3278,0.3277,0.3276,0.3201,0.32,0.3199,0.3135,0.3134,0.3133,0.3132,0.3055,0.3054,0.3052,0,0,0,0,0,0,0,0,0,0,0,0,0,0.3313,0.3365,0.3278,0.3235,0.323,0.3202,0.32,0.3199,0.3135,0.3134,0.3133,0.3132,0.3056,0.3054,0.3052,0.306,0,0,0.3045,0.3044,0,0,0,0,0,0,0,0,0.3316,0.331,0.3242,0.3238,0.3232,0.3176,0.3203,0.3152,0.3135,0.3171,0.3133,0.3131,0.3096,0.3091,0.3079,0.3056,0.3053,0.3045,0.3044,0.3043,0.3042,0,0,0,0,0,0,0,0.332,0.3312,0.3248,0.3241,0.3235,0.3219,0.321,0.3193,0.3141,0.3168,0.3163,0.3155,0.3093,0.3081,0.3076,0.3052,0.3045,0.3043,0.3042,0.3041,0.3028,0.3029,0,0,0,0,0,0,0.333,0.3316,0.325,0.3245,0.3272,0.3218,0.3208,0.3196,0.3141,0.3131,0.3156,0.3152,0.3085,0.3079,0.3073,0.3077,0.3043,0.3041,0.304,0.3027,0.3029,0.303,0,0,0,0,0,0,0.3332,0.3325,0.3253,0.3279,0.3269,0.3217,0.3204,0.3195,0.3182,0.3131,0.3122,0.3153,0.3084,0.3076,0.3063,0.3073,0.304,0.3038,0.3026,0.3028,0.3029,0.3085,0,0,0,0,0,0,0.3335,0.3326,0.3329,0.328,0.3268,0.3245,0.3205,0.3194,0.3178,0.3173,0.3126,0.3117,0.3083,0.3066,0.3061,0.307,0.3036,0.3025,0.3027,0.3029,0.3082,0.3088,0.3094,0,0,0,0,0,0.3339,0.3349,0.333,0.3322,0.3271,0.3245,0.3238,0.3198,0.318,0.3182,0.3149,0.3119,0.3073,0.3066,0.3059,0.3067,0.3024,0.3026,0.3028,0.308,0.3087,0.3093,0,0,0,0,0,0,0.3402,0.3342,0.332,0.3315,0.3286,0.3235,0.3236,0.3208,0.3183,0.3179,0.313,0.312,0.3111,0.3088,0.3081,0.307,0.3044,0.3045,0.3086,0.3092,0.3098,0.3103,0.3035,0,0,0,0,0,0.3416,0.34,0.3349,0.3349,0.3335,0.3288,0.3276,0.3247,0.3215,0.3202,0.3168,0.3138,0.3116,0.3103,0.3081,0.3079,0.3066,0.3081,0.3086,0.3091,0.3092,0.3086,0.3091,0.3036,0.3036,0.3036,0,0,0.3444,0.3409,0.3402,0.3361,0.3335,0.3319,0.3279,0.3264,0.3252,0.32,0.3184,0.3158,0.3121,0.3112,0.3107,0.3092,0.3104,0.3094,0.3098,0.3096,0.3088,0.3093,0.3098,0.3038,0.3038,0.3037,0,0,0.3485,0.3459,0.3454,0.3428,0.3389,0.3357,0.3356,0.3308,0.3289,0.3272,0.3232,0.3216,0.3181,0.3155,0.3137,0.3165,0.3136,0.316,0.3189,0.3183,0.3188,0.3191,0.3199,0.3202,0.3161,0.3161,0.3161,0,0.3525,0.3499,0.3456,0.3443,0.3425,0.3376,0.3371,0.3348,0.3303,0.3291,0.3276,0.3228,0.32,0.3183,0.3189,0.3177,0.3173,0.3164,0.3191,0.3194,0.3196,0.3203,0.3206,0.3164,0.3164,0.3163,0.3163,0,0.3548,0.3531,0.3533,0.3489,0.3471,0.3463,0.3416,0.3403,0.3375,0.3345,0.3327,0.3291,0.3259,0.3253,0.3226,0.3231,0.3222,0.32,0.3173,0.3205,0.321,0.3213,0.3168,0.3167,0.3166,0.3166,0,0,0.3629,0.356,0.3561,0.3539,0.3491,0.3476,0.3464,0.3432,0.342,0.3391,0.3377,0.3347,0.3324,0.3304,0.3274,0.3269,0.329,0.3246,0.3245,0.3254,0.329,0.3306,0.331,0.3271,0.3271,0.3271,0.3292,0,0.3661,0.3636,0.3595,0.3583,0.3565,0.3518,0.3507,0.3475,0.3446,0.3425,0.3393,0.3371,0.3344,0.3331,0.3324,0.329,0.3297,0.3288,0.3256,0.3256,0.3266,0.3313,0.333,0.3352,0.3294,0.3294,0.3294,0,0.3696,0.3667,0.3653,0.3603,0.3594,0.3585,0.355,0.3532,0.3494,0.3473,0.3449,0.3415,0.3398,0.3374,0.3348,0.3342,0.3327,0.3308,0.3307,0.3302,0.3276,0.3306,0.3358,0.336,0.3298,0.3297,0.3297,0,0.3753,0.3711,0.3696,0.3679,0.3621,0.3615,0.3591,0.3552,0.3534,0.3504,0.3491,0.346,0.3442,0.3418,0.3376,0.3363,0.3353,0.3327,0.3333,0.3334,0.3333,0.3333,0.338,0.3326,0.3326,0.3326,0.3326,0,0.3792,0.3785,0.372,0.3711,0.3701,0.3653,0.3644,0.3615,0.358,0.3563,0.3521,0.3506,0.3452,0.343,0.3397,0.3379,0.3372,0.3353,0.3344,0.3355,0.3357,0.3344,0.334,0.3327,0.3327,0.3327,0.3326,0,0.3854,0.3811,0.3791,0.3737,0.3723,0.3717,0.367,0.3658,0.3626,0.3605,0.3597,0.3546,0.3517,0.3473,0.3432,0.341,0.3396,0.3383,0.3409,0.3403,0.3411,0.341,0.345,0.3451,0.3399,0.3399,0.34,0,0.3881,0.3874,0.3818,0.3803,0.378,0.3757,0.3738,0.3691,0.3672,0.3627,0.362,0.3588,0.356,0.3517,0.3475,0.3443,0.3427,0.3443,0.3422,0.3433,0.3424,0.3424,0.3422,0.3447,0.3448,0.3449,0.345,0,0.3932,0.3911,0.3885,0.3851,0.3829,0.38,0.3769,0.3759,0.3704,0.3686,0.3656,0.3634,0.3591,0.3559,0.352,0.3494,0.3462,0.3456,0.3456,0.3467,0.3481,0.3471,0.342,0.3456,0.3455,0.3455,0.3454,0.3454,0.3976,0.3966,0.3924,0.3896,0.3867,0.3839,0.3824,0.3789,0.3763,0.3724,0.3697,0.3668,0.3627,0.3572,0.3546,0.3522,0.3508,0.3508,0.3508,0.3508,0.3511,0.3487,0.3515,0.3515,0.3515,0.3514,0.3514,0,0.4023,0.3993,0.3968,0.3925,0.3902,0.3874,0.3837,0.382,0.3795,0.3759,0.3732,0.3696,0.3664,0.3619,0.3583,0.3572,0.3556,0.3564,0.3564,0.3557,0.3527,0.353,0.3577,0.3577,0.3577,0.3577,0.3577,0.3577,0.4045,0.4026,0.3999,0.3964,0.3934,0.3905,0.3886,0.3858,0.383,0.3791,0.3764,0.3735,0.3695,0.3655,0.3624,0.3611,0.3599,0.3611,0.3594,0.3566,0.356,0.3554,0.3557,0.3609,0.3609,0.3626,0.3626,0.3626]},{"header":{"parameterUnit":"m.s-1","parameterCategory":1,"la1":30.2991,"la2":30.254,"lo1":-89.0895,"lo2":-89.0444,"dy":0.0017,"dx":0.0017,"nx":28,"ny":28,"refTime":"2024-09-01T03:00:00:Z","depth":0,"parameterNumber":3,"parameterNumberName":"V-component_of_WINDS"},"data":[0,0,0,0,0,0,0,0,0,0,0,0,0,0,0,0,0,0,0,0,0,0,0,0,0,0,0,0,0,0,0,0,0,0,0,0,0,0,0,0,0,0,0,0,0,0,0,0,0,0,0,0,0,0,0,0,0,0,0.6072,0.6072,0,0.6118,0.6118,0.6119,0.6087,0.6086,0.6084,0.6083,0.6132,0.6135,0.6138,0,0,0,0,0,0,0,0,0,0,0,0,0,0.5958,0.5961,0.6072,0.6072,0.6073,0.6117,0.6118,0.6119,0.6087,0.6086,0.6084,0.6082,0.6131,0.6135,0.6138,0,0,0,0,0,0,0,0,0,0,0,0,0,0.6006,0.5961,0.6072,0.6063,0.6062,0.6117,0.6118,0.6119,0.6088,0.6086,0.6083,0.6081,0.613,0.6134,0.6138,0.6206,0,0,0.615,0.6152,0,0,0,0,0,0,0,0,0.6004,0.6011,0.6063,0.6063,0.6063,0.6094,0.6096,0.6148,0.6088,0.6078,0.6083,0.608,0.6122,0.6126,0.614,0.6208,0.621,0.6151,0.6153,0.6155,0.6156,0,0,0,0,0,0,0,0.6,0.6008,0.609,0.6064,0.6064,0.6057,0.6061,0.6106,0.6111,0.6079,0.6077,0.6082,0.6121,0.6136,0.614,0.6211,0.6151,0.6154,0.6157,0.6158,0.6335,0.6337,0,0,0,0,0,0,0.5998,0.6006,0.6088,0.6091,0.6027,0.606,0.6065,0.6087,0.6111,0.6112,0.6084,0.6081,0.613,0.6136,0.6142,0.6221,0.6155,0.6158,0.6161,0.6333,0.6335,0.6338,0,0,0,0,0,0,0.5995,0.6005,0.6087,0.6048,0.6058,0.6065,0.6089,0.6089,0.6103,0.6115,0.6116,0.6098,0.6129,0.6136,0.6189,0.6222,0.616,0.6164,0.633,0.6333,0.6337,0.638,0,0,0,0,0,0,0.5992,0.6005,0.603,0.6049,0.606,0.6133,0.6091,0.6091,0.611,0.6106,0.6128,0.613,0.6128,0.6184,0.6193,0.6227,0.6167,0.6327,0.6331,0.6335,0.6376,0.6385,0.6393,0,0,0,0,0,0.5988,0.6042,0.6031,0.6042,0.6092,0.6135,0.6141,0.6137,0.6113,0.6138,0.6145,0.6129,0.6217,0.6189,0.62,0.6235,0.6325,0.633,0.6335,0.6372,0.6383,0.6392,0,0,0,0,0,0,0.6028,0.6044,0.6033,0.6094,0.6113,0.6129,0.6162,0.6149,0.6176,0.6171,0.6166,0.6171,0.6226,0.6236,0.6204,0.6301,0.6267,0.6275,0.6292,0.6302,0.631,0.6307,0.617,0,0,0,0,0,0.6043,0.6076,0.6089,0.6141,0.6152,0.6155,0.6174,0.6168,0.6189,0.6197,0.6208,0.6229,0.6261,0.6282,0.6313,0.6378,0.6381,0.6407,0.6415,0.6422,0.6428,0.6462,0.6473,0.6355,0.6355,0.6355,0,0,0.6076,0.6089,0.6111,0.615,0.6164,0.6198,0.6162,0.6201,0.6226,0.6203,0.6253,0.6262,0.6285,0.6343,0.637,0.6353,0.6462,0.6429,0.6434,0.6437,0.6468,0.648,0.649,0.6358,0.6358,0.6357,0,0,0.6153,0.6167,0.6211,0.6226,0.6248,0.6249,0.626,0.6278,0.6283,0.6333,0.6316,0.6346,0.6402,0.6418,0.6434,0.6516,0.6502,0.6527,0.657,0.6602,0.6612,0.662,0.6648,0.6658,0.6533,0.6533,0.6533,0,0.6192,0.6242,0.6236,0.6275,0.6292,0.6272,0.6316,0.6331,0.6362,0.6375,0.6356,0.6425,0.6439,0.65,0.652,0.6534,0.6545,0.6524,0.6611,0.6619,0.6626,0.6653,0.6664,0.6536,0.6536,0.6535,0.6535,0,0.6288,0.6323,0.6356,0.6385,0.6406,0.6448,0.6448,0.6471,0.6463,0.6467,0.6518,0.6534,0.6566,0.6581,0.6575,0.6641,0.663,0.6611,0.6577,0.664,0.6665,0.6676,0.654,0.6539,0.6538,0.6537,0,0,0.6391,0.6415,0.6427,0.6439,0.6461,0.6488,0.6529,0.656,0.6579,0.6601,0.6634,0.6681,0.6664,0.6681,0.6677,0.6706,0.6768,0.6683,0.6684,0.6698,0.6841,0.6854,0.6866,0.6759,0.6761,0.6763,0.6838,0,0.6468,0.6538,0.6533,0.6599,0.6631,0.6611,0.6647,0.6664,0.6669,0.6697,0.6702,0.6735,0.671,0.672,0.6748,0.6755,0.6797,0.6749,0.679,0.6791,0.6784,0.6879,0.6894,0.6964,0.6848,0.685,0.6851,0,0.6567,0.6591,0.666,0.6675,0.6689,0.6721,0.6747,0.6775,0.6794,0.6795,0.6814,0.6805,0.6846,0.6812,0.6868,0.6836,0.6852,0.6858,0.686,0.6863,0.6824,0.6884,0.6987,0.6997,0.6867,0.6866,0.6864,0,0.6634,0.6683,0.673,0.6742,0.6762,0.6784,0.6794,0.6811,0.6829,0.6853,0.6865,0.6894,0.6909,0.6932,0.6931,0.6906,0.6987,0.6953,0.6989,0.6989,0.7006,0.7005,0.7113,0.7019,0.7019,0.7019,0.7018,0,0.672,0.6762,0.676,0.6789,0.6836,0.683,0.6877,0.6884,0.6899,0.6929,0.6915,0.6943,0.694,0.6969,0.6968,0.7014,0.7022,0.7024,0.7023,0.7024,0.7024,0.7034,0.7029,0.7021,0.7021,0.702,0.702,0,0.6802,0.6802,0.6852,0.6866,0.6871,0.6905,0.6917,0.6944,0.6947,0.6985,0.6994,0.6999,0.7032,0.7033,0.7072,0.7071,0.7126,0.7121,0.7119,0.7118,0.7153,0.7149,0.7271,0.7286,0.7183,0.7184,0.7185,0,0.6856,0.6888,0.6905,0.6924,0.6934,0.6965,0.6983,0.6978,0.6998,0.7021,0.7046,0.7077,0.7102,0.7155,0.7163,0.7192,0.7186,0.7226,0.719,0.719,0.7185,0.7183,0.7185,0.7233,0.7234,0.7235,0.7236,0,0.6952,0.695,0.6976,0.7002,0.7024,0.7045,0.7064,0.708,0.7078,0.7101,0.7133,0.7153,0.7191,0.7222,0.725,0.726,0.7248,0.7247,0.7257,0.7258,0.7256,0.7256,0.7137,0.7244,0.7244,0.7243,0.7242,0.7242,0.702,0.7047,0.7063,0.7093,0.7106,0.7124,0.715,0.7156,0.7183,0.7213,0.7209,0.7245,0.7263,0.7299,0.7311,0.734,0.7326,0.734,0.7344,0.7347,0.735,0.7252,0.7345,0.7345,0.7345,0.7344,0.7344,0,0.7114,0.7123,0.715,0.7177,0.72,0.7185,0.7205,0.7226,0.7258,0.7275,0.7299,0.7336,0.7366,0.7376,0.7405,0.7426,0.742,0.7433,0.7431,0.7433,0.7361,0.7349,0.7437,0.7437,0.7437,0.7437,0.7437,0.7437,0.7165,0.7209,0.721,0.726,0.7269,0.7304,0.7316,0.7333,0.7346,0.7388,0.7412,0.7418,0.7432,0.7462,0.7488,0.749,0.7501,0.7516,0.7516,0.7448,0.7439,0.743,0.7418,0.7519,0.7519,0.7585,0.7586,0.7586]}]]